If you wish to contribute or participate in the discussions about articles you are invited to join SKYbrary as a registered user

 Actions

Atyrau Airport

From SKYbrary Wiki

UATG
Airport
ICAO: UATG – IATA: GUW
Summary
Name Atyrau Airport
Region Asia and Pacific
Territory Kazakhstan KZ.gif
Location Atyrau
Serving Atyrau
Elevation -21.946 m <br />-72 ft <br />-72 ft-21.946 m <br />
Coordinates 47° 7' 19.23" N, 51° 49' 23.51" E
Runways
Designator Length Width Surface ROPS
14/32 3000 m9,842.52 ft <br /> 44 m144.357 ft <br /> ASP yes/yes


METAR
Observation UATG 160430Z 22007MPS 9999 BKN015CB 14/11 Q1012 R14/CLRD70 NOSIG RMK QFE761/1014
Station ATYRAU
Date/Time 16 April 2021 04:30:00
Wind direction 220°
Wind speed kts
Lowest cloud amount broken clouds
Temperature 14°C
Dew point 11°C
Humidity 82%
QNH 1012 hPa
Weather condition n/a

BS
Tag(s) Bird Strike
CFIT
Tag(s) Altimeter Temperature Error Correction
WX
Tag(s) Cumulonimbus
Fog
Freezing Rain

Atyrau Airport

ICAO: UATG IATA: GUW

Description

International airport serving Atyrau, Kazakhstan.

Climatology

Cold Semi-arid climate (Köppen climate classification BSk). - Hot, sometimes extremely hot summers and cold, sometimes very cold winters. Some snowfall during the winter. Areas featuring cold semi-arid climates are sometimes subject to major temperature swings during a 24 hour period.

Maps

Terrain

Loading map...

Airport Layout

Loading map...


Accidents & Serious Incidents at or in vicinity of UATG

None on SKYbrary